Location: Unspecified
(35.6961°N, 0.0000°E)
Time: 23:35:53
(UTC+00:00)

Explorer 11/Cluster Stage 4 - Pass Details

Date: 30 May 2019
Orbit: 467 x 1260 km, 28.8° (Epoch: 19 June)

Event Time Altitude Azimuth Distance (km) Brightness Sun altitude
Rises 02:19:20 0° 259° (W) 3,841 - -23.5°
Reaches altitude 10° 02:22:26 10° 253° (WSW) 2,760 - -23.1°
Maximum altitude 02:28:39 43° 184° (S) 1,173 - -22.4°
Exits shadow 02:28:40 43° 184° (S) 1,172 7.0 -22.4°
Drops below altitude 10° 02:33:40 10° 114° (ESE) 2,221 9.1 -21.7°
Sets 02:35:56 0° 107° (ESE) 3,023 9.9 -21.4°
